Regional Weather Roundup
Issued by NWS

Home | Current Version | Previous Version | Text Only | Print | Product List | Glossary Off
Versions: 1 2 3 4 5 6 7 8 9 10 11 12 13 14 15 16 17 18 19 20 21 22 23 24 25 26 27 28 29 30 31 32 33 34 35 36 37 38 39 40 41 42 43 44 45 46 47 48

000
ASUS45 KCYS 012310
RWRWY

WYOMING REGIONAL WEATHER ROUNDUP
NATIONAL WEATHER SERVICE CHEYENNE WY
500 PM MDT TUE SEP 01 2015

NOTE:  "FAIR" INDICATES FEW OR NO CLOUDS BELOW 12,000 FEET
WITH NO SIGNIFICANT WEATHER AND/OR OBSTRUCTIONS TO VISIBILITY.

WYZ001-020000-
YELLOWSTONE NATIONAL PARK

CITY           SKY/WX    TMP DP  RH WIND       PRES   REMARKS
LK YELLOWSTONE   N/A     71  23  16 SW10G22   30.16F
W YELLOWSTONE  NOT AVBL

$$
WYZ002>013-054>058-071-098>099-020000-
NORTHERN WYOMING

CITY           SKY/WX    TMP DP  RH WIND       PRES   REMARKS
JACKSON        MOSUNNY   79  30  17 S12       30.05S
CODY           FAIR      88  30  12 W10G16    29.89S
GREYBULL       FAIR      93  27   9 SE8       29.80F
WORLAND        FAIR      92  35  13 SW10      29.81F
SHERIDAN       FAIR      92  26   9 CALM      29.82F
BUFFALO        FAIR      89  27  10 E8        29.92S
GILLETTE       FAIR      90  29  11 NW7       29.88F
HULETT         FAIR      88  32  13 W5        29.90S
NEWCASTLE        N/A     90  28  11 S5        29.90S

$$
WYZ014>020-022>026-101>103-020000-
CENTRAL WYOMING

CITY           SKY/WX    TMP DP  RH WIND       PRES   REMARKS
BIG PINEY      FAIR      82  28  14 NW15      30.11S
PINEDALE       MOCLDY    79  28  15 W13G22    30.12R
DUBOIS         MOCLDY    73  28  19 NW15      30.09S
LANDER         FAIR      86  33  15 W8        29.94S
RIVERTON       FAIR      86  31  13 NW10      29.95S
CASPER         FAIR      89  29  11 W20G29    29.96F
DOUGLAS        FAIR      91  29  11 W10       29.95S

$$
WYZ021-027>030-104>119-020000-
SOUTHERN WYOMING

CITY           SKY/WX    TMP DP  RH WIND       PRES   REMARKS
EVANSTON       PTSUNNY   76  36  23 SW15      30.14F
KEMMERER       MOCLDY    81  30  16 SW14G22   30.14F
FORT BRIDGER   CLEAR     77  32  19 SW16      30.17S
ROCK SPRINGS   PTSUNNY   67  51  56 SE5       30.15F
DIXON          MOCLDY    79  36  21 NW8G30    30.16F
RAWLINS        FAIR      78  38  23 S26G33    30.13S
SARATOGA       FAIR      79  37  22 W16G22    30.18S
LARAMIE        FAIR      78  33  19 SW7G16    30.17S
CHEYENNE       FAIR      85  33  15 VRB7      30.09S
TORRINGTON     FAIR      93  34  12 S7        29.90S
PINE BLUFFS    FAIR      90  30  12 NW14      30.01S

$$


USA.gov is the U.S. government's official web portal to all federal, state and local government web resources and services.